When you browse on this site, cookies collect data to enhance your experience and personalize the content and advertising you see.
Visit our Privacy Policy to learn more. By continuing to use the site, you agree to this use of cookies and data.
  • en Suisse
  • Liste des pays
  • À 7 jours
  • Température de l'eau
  • Carte météo
  • Widgets météo
  • user-avatar
    Se connecter

    Météo par heure à Sharan

    Ce jour, 5 Juin, Vendredi

    Heure Température Précipitation Vent Pression Humidité
    00:00 +21°C° 0 mm 3 m/s 587 mmHg 32%
    01:00 +20°C° 0 mm 3 m/s 587 mmHg 31%
    02:00 +20°C° 0 mm 3 m/s 587 mmHg 31%
    03:00 +19°C° 0 mm 3 m/s 586 mmHg 31%
    04:00 +18°C° 0 mm 3 m/s 586 mmHg 31%
    05:00 +18°C° 0 mm 4 m/s 585 mmHg 31%
    06:00 +19°C° 0 mm 4 m/s 586 mmHg 28%
    07:00 +20°C° 0 mm 4 m/s 587 mmHg 25%
    08:00 +21°C° 0 mm 4 m/s 588 mmHg 22%
    09:00 +23°C° 0 mm 5 m/s 588 mmHg 20%
    10:00 +25°C° 0 mm 5 m/s 589 mmHg 18%
    11:00 +26°C° 0 mm 6 m/s 589 mmHg 16%
    12:00 +27°C° 0 mm 6 m/s 589 mmHg 15%
    13:00 +28°C° 0 mm 6 m/s 589 mmHg 13%
    14:00 +29°C° 0 mm 6 m/s 589 mmHg 12%
    15:00 +29°C° 0 mm 6 m/s 589 mmHg 12%
    16:00 +29°C° 0 mm 5 m/s 588 mmHg 12%
    17:00 +29°C° 0 mm 6 m/s 588 mmHg 11%
    18:00 +28°C° 0 mm 7 m/s 588 mmHg 13%
    19:00 +27°C° 0 mm 7 m/s 588 mmHg 15%
    20:00 +24°C° 0 mm 8 m/s 587 mmHg 16%
    21:00 +23°C° 0 mm 7 m/s 587 mmHg 18%
    22:00 +23°C° 0 mm 7 m/s 587 mmHg 20%
    23:00 +22°C° 0 mm 6 m/s 587 mmHg 22%

    Demain, 6 Juin, Samedi

    Heure Température Précipitation Vent Pression Humidité
    00:00 +21°C° 0 mm 5 m/s 587 mmHg 23%
    01:00 +20°C° 0 mm 4 m/s 586 mmHg 24%
    02:00 +19°C° 0 mm 4 m/s 586 mmHg 26%
    03:00 +19°C° 0 mm 3 m/s 586 mmHg 27%
    04:00 +18°C° 0 mm 3 m/s 586 mmHg 28%
    05:00 +18°C° 0 mm 3 m/s 586 mmHg 30%
    06:00 +19°C° 0 mm 4 m/s 586 mmHg 27%
    07:00 +20°C° 0 mm 4 m/s 587 mmHg 24%
    08:00 +22°C° 0 mm 5 m/s 588 mmHg 22%
    09:00 +23°C° 0 mm 6 m/s 588 mmHg 19%
    10:00 +26°C° 0 mm 7 m/s 589 mmHg 16%
    11:00 +27°C° 0 mm 8 m/s 589 mmHg 13%
    12:00 +28°C° 0 mm 7 m/s 589 mmHg 12%
    13:00 +29°C° 0 mm 7 m/s 589 mmHg 11%
    14:00 +30°C° 0 mm 6 m/s 589 mmHg 9%
    15:00 +30°C° 0 mm 7 m/s 589 mmHg 9%
    16:00 +30°C° 0 mm 7 m/s 588 mmHg 9%
    17:00 +30°C° 0 mm 7 m/s 588 mmHg 9%
    18:00 +28°C° 0 mm 7 m/s 588 mmHg 11%
    19:00 +27°C° 0 mm 6 m/s 587 mmHg 13%
    20:00 +24°C° 0 mm 6 m/s 587 mmHg 15%
    21:00 +23°C° 0 mm 5 m/s 587 mmHg 18%
    22:00 +22°C° 0 mm 4 m/s 587 mmHg 20%
    23:00 +21°C° 0 mm 3 m/s 587 mmHg 22%

    Après-demain, 7 Juin, Dimanche

    Heure Température Précipitation Vent Pression Humidité
    00:00 +20°C° 0 mm 3 m/s 587 mmHg 22%
    01:00 +20°C° 0 mm 3 m/s 586 mmHg 22%
    02:00 +19°C° 0 mm 3 m/s 586 mmHg 22%
    03:00 +18°C° 0 mm 2 m/s 586 mmHg 22%
    04:00 +17°C° 0 mm 2 m/s 585 mmHg 23%
    05:00 +17°C° 0 mm 2 m/s 585 mmHg 23%
    06:00 +18°C° 0 mm 2 m/s 586 mmHg 21%
    07:00 +19°C° 0 mm 2 m/s 587 mmHg 19%
    08:00 +21°C° 0 mm 3 m/s 588 mmHg 17%
    09:00 +22°C° 0 mm 3 m/s 588 mmHg 15%
    10:00 +25°C° 0 mm 2 m/s 588 mmHg 13%
    11:00 +26°C° 0 mm 2 m/s 589 mmHg 11%
    12:00 +27°C° 0 mm 2 m/s 589 mmHg 10%
    13:00 +28°C° 0 mm 2 m/s 589 mmHg 9%
    14:00 +29°C° 0 mm 2 m/s 589 mmHg 8%
    15:00 +29°C° 0 mm 2 m/s 588 mmHg 7%
    16:00 +29°C° 0 mm 2 m/s 588 mmHg 7%
    17:00 +30°C° 0 mm 2 m/s 588 mmHg 6%
    18:00 +29°C° 0 mm 2 m/s 588 mmHg 7%
    19:00 +28°C° 0 mm 1 m/s 587 mmHg 9%
    20:00 +27°C° 0 mm 1 m/s 587 mmHg 10%
    21:00 +26°C° 0 mm 1 m/s 587 mmHg 13%
    22:00 +25°C° 0 mm 1 m/s 587 mmHg 16%
    23:00 +24°C° 0 mm 2 m/s 587 mmHg 19%

    8 Juin, Lundi

    Heure Température Précipitation Vent Pression Humidité
    00:00 +23°C° 0 mm 1 m/s 586 mmHg 27%
    01:00 +22°C° 0 mm 1 m/s 586 mmHg 34%
    02:00 +19°C° 0 mm 0 m/s 586 mmHg 42%
    03:00 +18°C° 0 mm 0 m/s 585 mmHg 42%
    04:00 +20°C° 0 mm 1 m/s 585 mmHg 43%
    05:00 +19°C° 0 mm 1 m/s 585 mmHg 44%
    06:00 +21°C° 0 mm 1 m/s 586 mmHg 37%
    07:00 +22°C° 0 mm 1 m/s 587 mmHg 31%
    08:00 +24°C° 0 mm 1 m/s 587 mmHg 25%
    09:00 +25°C° 0 mm 1 m/s 588 mmHg 21%
    10:00 +26°C° 0 mm 1 m/s 588 mmHg 17%
    11:00 +28°C° 0 mm 1 m/s 588 mmHg 14%
    12:00 +29°C° 0 mm 2 m/s 588 mmHg 12%
    13:00 +30°C° 0 mm 2 m/s 589 mmHg 11%
    14:00 +31°C° 0 mm 3 m/s 589 mmHg 9%
    15:00 +33°C° 0 mm 4 m/s 588 mmHg 9%
    16:00 +33°C° 0 mm 5 m/s 588 mmHg 9%
    17:00 +33°C° 0 mm 6 m/s 588 mmHg 9%
    18:00 +32°C° 0 mm 6 m/s 588 mmHg 10%
    19:00 +30°C° 0 mm 6 m/s 588 mmHg 11%
    20:00 +29°C° 0 mm 5 m/s 588 mmHg 12%
    21:00 +28°C° 0 mm 4 m/s 588 mmHg 18%
    22:00 +27°C° 0 mm 4 m/s 588 mmHg 24%
    23:00 +25°C° 0 mm 3 m/s 587 mmHg 30%

    9 Juin, Mardi

    Heure Température Précipitation Vent Pression Humidité
    00:00 +25°C° 0 mm 3 m/s 587 mmHg 35%
    01:00 +24°C° 0 mm 2 m/s 586 mmHg 41%
    02:00 +23°C° 0 mm 2 m/s 586 mmHg 47%
    03:00 +21°C° 0 mm 2 m/s 585 mmHg 50%
    04:00 +21°C° 0 mm 1 m/s 585 mmHg 52%
    05:00 +21°C° 0 mm 1 m/s 585 mmHg 55%
    06:00 +22°C° 0 mm 1 m/s 586 mmHg 49%
    07:00 +23°C° 0 mm 1 m/s 586 mmHg 44%
    08:00 +25°C° 0 mm 1 m/s 587 mmHg 38%
    09:00 +26°C° 0 mm 2 m/s 588 mmHg 31%
    10:00 +28°C° 0 mm 2 m/s 589 mmHg 23%
    11:00 +29°C° 0 mm 3 m/s 589 mmHg 15%
    12:00 +30°C° 0 mm 3 m/s 589 mmHg 13%
    13:00 +32°C° 0 mm 4 m/s 589 mmHg 11%
    14:00 +33°C° 0 mm 4 m/s 589 mmHg 9%
    15:00 +33°C° 0 mm 5 m/s 589 mmHg 8%
    16:00 +34°C° 0 mm 6 m/s 589 mmHg 7%
    17:00 +34°C° 0 mm 7 m/s 589 mmHg 6%
    18:00 +33°C° 0 mm 6 m/s 588 mmHg 8%
    19:00 +30°C° 0 mm 5 m/s 588 mmHg 10%
    20:00 +29°C° 0 mm 5 m/s 588 mmHg 12%
    21:00 +27°C° 0 mm 5 m/s 587 mmHg 18%
    22:00 +26°C° 0 mm 5 m/s 587 mmHg 25%
    23:00 +23°C° 0 mm 5 m/s 587 mmHg 32%

    10 Juin, Mercredi

    Heure Température Précipitation Vent Pression Humidité
    00:00 +23°C° 0 mm 4 m/s 587 mmHg 33%
    01:00 +22°C° 0 mm 3 m/s 586 mmHg 34%
    02:00 +21°C° 0 mm 3 m/s 586 mmHg 36%
    03:00 +21°C° 0 mm 2 m/s 586 mmHg 36%
    04:00 +20°C° 0 mm 2 m/s 586 mmHg 36%
    05:00 +19°C° 0 mm 2 m/s 586 mmHg 37%
    06:00 +20°C° 0 mm 2 m/s 586 mmHg 34%
    07:00 +21°C° 0 mm 3 m/s 587 mmHg 32%
    08:00 +22°C° 0 mm 3 m/s 588 mmHg 29%
    09:00 +25°C° 0 mm 3 m/s 588 mmHg 25%
    10:00 +26°C° 0 mm 2 m/s 589 mmHg 22%
    11:00 +27°C° 0 mm 2 m/s 589 mmHg 18%
    12:00 +28°C° 0 mm 2 m/s 589 mmHg 15%
    13:00 +30°C° 0 mm 2 m/s 589 mmHg 13%
    14:00 +31°C° 0 mm 3 m/s 589 mmHg 10%
    15:00 +31°C° 0 mm 3 m/s 589 mmHg 11%
    16:00 +31°C° 0 mm 3 m/s 589 mmHg 11%
    17:00 +31°C° 0 mm 3 m/s 588 mmHg 12%
    18:00 +29°C° 0 mm 4 m/s 588 mmHg 21%
    19:00 +28°C° 0 mm 4 m/s 588 mmHg 29%
    20:00 +26°C° 0 mm 5 m/s 587 mmHg 37%
    21:00 +26°C° 0 mm 4 m/s 587 mmHg 40%
    22:00 +25°C° 0 mm 4 m/s 587 mmHg 43%
    23:00 +25°C° 0 mm 3 m/s 588 mmHg 46%
    Voir plus